Regional Weather Roundup
Issued by NWS Austin/San Antonio, TX

Home | Current Version | Previous Version | Text Only | Print | Product List | Glossary On
Versions: 1 2 3 4 5 6 7 8 9 10 11 12 13 14 15 16 17 18 19 20 21 22 23 24 25 26 27 28 29 30 31 32 33 34 35 36 37 38 39 40 41 42 43 44 45 46 47 48 49 50
000
ASUS44 KEWX 230811
RWREWX
SOUTH TEXAS REGIONAL WEATHER ROUNDUP
NATIONAL WEATHER SERVICE AUSTIN/SAN ANTONIO TX
300 AM CDT SUN JUL 23 2017

NOTE: "FAIR" INDICATED FEW OR NO CLOUDS BELOW 12,000 FEET WITH NO
SIGNIFICANT WEATHER AND/OR OBSTRUCTIONS TO VISIBILITY.

* - THESE STATIONS ARE NOT NWS OR FAA STATIONS...AND ARE NOT SUBJECT
    TO NWS AND FAA QUALITY CONTROL.

TXZ171-172-183>190-230900-
TEXAS HILL COUNTRY AND EDWARDS PLATEAU

CITY           SKY/WX    TMP DP  RH WIND       PRES   REMARKS
JUNCTION       MOCLDY    82  72  71 S6        29.95F
*LLANO         CLEAR     81  72  74 CALM      29.96F
BURNET         CLEAR     81  71  71 S9        29.95F
*HORSESHOE BAY CLEAR     81  72  74 CALM      29.93F
*KERRVILLE     CLEAR     77  73  87 SE5       29.98S
*FREDERICKSBRG MOCLDY    78  69  73 S3        29.97F
*ROCKSPRINGS   MOCLDY    81  73  78 S12       30.02S
*BOERNE STAGE  CLEAR     77  70  78 S5        29.97F
*CASTROVILLE   CLEAR     80  71  74 SE3       29.95S
HONDO          CLEAR     81  73  76 E6        29.94S
*UVALDE        CLEAR     80  72  77 CALM      29.93S
DEL RIO        MOCLDY    84  70  62 E8        29.88F
LAUGHLIN AFB   PTCLDY    84  71  66 E12       29.89F
CARRIZO SPRGS  CLEAR     84  66  54 SE12      29.87F
*EAGLE PASS    NOT AVBL
$$

TXZ173-191>194-202-209-217>225-228-230900-
CENTRAL AND SOUTH CENTRAL TEXAS

CITY           SKY/WX    TMP DP  RH WIND       PRES   REMARKS
GEORGETOWN     NOT AVBL
AUSTIN/BERGSTM CLEAR     80  75  84 S7        29.92F
AUSTIN/MABRY   CLEAR     81  74  79 VRB5      29.93F
*AUSTIN/EXEC     N/A     77  75  94 S5        29.93F
*LAGO VISTA    CLEAR     80  73  81 S7        29.95F
SAN MARCOS     CLEAR     79  66  65 S6        29.94F
NEW BRAUNFELS  CLEAR     77  73  87 S6        29.92F
RANDOLPH AFB   CLEAR     77  77 100 CALM      29.93F
PT SAN ANTONIO CLEAR     80  74  79 SE7       29.92F
SAN ANTONIO    CLEAR     80  73  79 SE6       29.94F
STINSON FIELD  CLEAR     81  73  76 SE6       29.91F
*LA GRANGE     CLEAR     79  77  94 S3        29.91F
*GIDDINGS      CLEAR     78  74  87 S7        29.93F
*GONZALES      CLEAR     79  78  97 S7        29.91F
$$

TXZ163>164-176>182-195>201-210>213-226-227-235-230900-
SOUTHEAST TEXAS

CITY           SKY/WX    TMP DP  RH WIND       PRES   REMARKS
COLLEGE STN    CLEAR     80  76  87 S8        29.91F
*BRYAN         CLEAR     79  77  94 S7        29.93F
*CALDWELL      NOT AVBL
*CROCKETT      PTCLDY    75  72  88 CALM      29.95F
*BRENHAM       CLEAR     80  77  92 S6        29.92F
HUNTSVILLE     CLEAR     79  74  84 S9        29.93F
CONROE         PTCLDY    77  75  93 S5        29.94F
HOUSTON BUSH   PTCLDY    80  76  87 CALM      29.93F
HOUSTON HOBBY  PTCLDY    81  75  82 S5        29.93F
*HOUSTON SW AP PTCLDY    75  73  94 CALM      29.94F
PEARLAND       PTCLDY    82  75  79 S3        29.94F
HOUSTON HOOKS  PTCLDY    79  76  90 S5        29.93F
ELLINGTON FLD  NOT AVBL
SUGAR LAND     PTCLDY    79  76  90 SW3       29.93F
*HOUSTON EXEC  PTCLDY    77  75  94 S5        29.95F
*CLEVELAND MUN PTCLDY    76  74  95 CALM      29.94F
*WHARTON       CLOUDY    77  74  89 CALM      29.93F
*COLUMBUS      FAIR      77  75  93 S5        29.93F
*EAGLE LAKE    SUNNY     79  78  97 S3        29.92F
$$

TXZ214>216-236>238-230900-
THE UPPER TEXAS COAST

CITY           SKY/WX    TMP DP  RH WIND       PRES   REMARKS
*ORANGE        CLEAR     79  78  96 CALM      29.95F
PORT ARTHUR    CLEAR     78  76  93 S7        29.92F
GALVESTON      CLOUDY    85  77  77 S17       29.93F HX  95
ANGLETON       CLOUDY    81  77  88 S6        29.93F
*BAY CITY      CLOUDY    80  77  90 SW3       29.93F
PALACIOS       CLOUDY    83  76  79 S13G20    29.92F HX  91
$$

TXZ229>234-239>247-230900-
TEXAS COASTAL BEND AND RIO GRANDE PLAINS

CITY           SKY/WX    TMP DP  RH WIND       PRES   REMARKS
VICTORIA       CLOUDY    81  75  82 S7        29.92F
*BEEVILLE      CLOUDY    80  80 100 S9        29.92S
ROCKPORT       PTCLDY    84  75  74 S12       29.91F HX  92
*PORT ARANSAS  CLOUDY    84  76  78 S17G23    29.91F HX  92
*PORT LAVACA   CLOUDY    81  75  82 S7        29.92F
*INGLESIDE     PTCLDY    84  77  79 MISG      29.91F HX  95
CORPUS CHRISTI PTCLDY    80  77  90 S9        29.91F
CORPUS NAS     CLOUDY    85  79  82 S16G23    29.90F HX  98
*ROBSTOWN      CLEAR     82  76  84 S8        29.91F
ALICE          CLEAR     78  73  84 S8        29.90F
KINGSVILLE NAS CLEAR     81  78  91 S14       29.90F
COTULLA        CLEAR     83  66  56 SE9       29.89F
*FAITH RANCH   CLEAR     84  64  51 SE12      29.88S
LAREDO         CLEAR     83  70  64 SE12        N/A
$$

TXZ248>255-230900-
DEEP SOUTH TEXAS

CITY           SKY/WX    TMP DP  RH WIND       PRES   REMARKS
BROWNSVILLE    CLOUDY    80  77  90 S12       29.91F
PORT ISABEL    CLOUDY    82  78  88 S14       29.90F HX  91
*SOUTH PADRE   NOT AVBL
HARLINGEN      NOT AVBL
*HEBBRONVILLE  PTCLDY    77  71  81 S6        29.92F
MCALLEN        PTCLDY    82  75  79 SE8       29.91F
*WESLACO       MOCLDY    81  75  82 S7        29.90F
FALFURRIAS     CLEAR     79  75  88 SE8       29.90F
EDINBURG       CLOUDY    82  75  80 S6        29.90F
*ZAPATA        CLOUDY    82  70  67 SE10G18   29.88F
$$

TXZ213>215-236>238-242>244-246-247-251-254-255-230900-
CMAN STATIONS

STATION/POSITION TIME  TEMP    WIND        PRES    WAVE
                       AIR SEA DIR/SP/G            HT/PER
                 (UTC) (F)     (DEG/KT/KT) (MB)    (FT/S)
SABINE PASS      0748   83 89  210/  6/ 11 1015.2
SEA RIM ST PARK  0800   84     200/ 12/ 16 1014.1
NORTH JETTY/GLS  0748          200/ 16/ 19   N/A
EAGLE POINT      0748   83 88  230/  9/ 12 1013.6
MORGANS POINT    0748   83 87  220/  7/  9 1013.5
MISSION/ARANSAS  0700          170/ 16     1014.0
PORT O`CONNOR    0748   84     180/ 16/ 20 1012.7
PORT ARANSAS     0800   84 86  160/ 23/ 25 1012.6
MALAQUITE BEACH  0748   85 86  160/ 20/ 23 1012.0
BAFFIN BAY       0748   83 84              1012.8
PORT ISABEL      0748   83 85              1013.0
$$




USA.gov is the U.S. government's official web portal to all federal, state and local government web resources and services.